Location: Newark
(42.1667°N, 14.5667°E)
Time: 15:08:18
(UTC+00:00)

Envisat - Visible Passes

Search period start: 24 January 2020 00:00
Search period end: 03 February 2020 00:00
Orbit: 764 x 766 km, 98.1° (Epoch: 23 January)

Date Brightness Start Highest point End Pass type
(mag) Time Alt. Az. Time Alt. Az. Time Alt. Az.
24 Jan 4.6 05:11:34 10° NNE 05:16:20 39° E 05:21:03 10° SSE visible
24 Jan 5.8 18:07:14 10° SW 18:10:40 18° W 18:14:07 10° NW visible
25 Jan 5.9 04:35:50 10° NE 04:39:16 18° E 04:42:41 10° SE visible
25 Jan 4.5 17:28:52 10° SSW 17:33:36 39° W 17:38:22 10° NNW visible
26 Jan 3.4 05:36:48 10° NNE 05:41:53 69° ESE 05:46:56 10° S visible
26 Jan 3.1 16:51:40 10° SSE 16:56:45 87° WSW 17:01:52 10° NNW visible
27 Jan 5.0 05:00:28 10° NNE 05:04:58 31° E 05:09:27 10° SSE visible
27 Jan 5.5 17:55:18 10° SW 17:59:16 23° W 18:03:16 10° NW visible
28 Jan 6.2 04:25:12 10° ENE 04:27:51 14° E 04:30:29 10° ESE visible
28 Jan 4.0 17:17:21 10° S 17:22:16 50° W 17:27:13 10° NNW visible
29 Jan 3.9 05:25:35 10° NNE 05:30:35 54° E 05:35:32 10° S visible
29 Jan 3.0 16:40:25 10° SSE 16:45:28 75° ENE 16:50:33 10° N visible
29 Jan 6.3 18:22:46 10° WSW 18:25:02 13° W 18:27:18 10° WNW visible
30 Jan 5.5 04:49:27 10° NE 04:53:36 25° E 04:57:43 10° SSE visible
30 Jan 5.1 17:43:32 10° SSW 17:47:53 29° W 17:52:17 10° NW visible
31 Jan 6.4 04:15:10 10° ENE 04:16:24 11° E 04:17:39 10° ESE visible
31 Jan 3.5 17:05:56 10° S 17:10:57 64° W 17:16:01 10° NNW visible
01 Feb 4.4 05:14:24 10° NNE 05:19:15 43° E 05:24:04 10° S visible
01 Feb 6.0 18:10:26 10° SW 18:13:36 17° W 18:16:48 10° NW visible
02 Feb 5.8 04:38:32 10° NE 04:42:13 20° E 04:45:51 10° SE visible
02 Feb 4.7 17:31:53 10° SSW 17:36:31 36° W 17:41:12 10° NNW visible
